Content
SEND FEEDBACK

Daily
Averages
Monthly
Summary
United States of America

ST. LOUIS - MEMORIAL PLAZA, MISSOURI


Home > North America > United States > Missouri
Elevation: 620 feet     Latitude: 38 38N     Longitude: 090 12W

WEATHER
 
SELECT A DAY
Number of Records: 186,374;   Date Range: 1/1/95 - 9/13/14
 
SHARE

PRINT THIS DATA

[ ← Previous Day ]
WEATHER ALMANAC - FEBRUARY 1, 2013
[ Next Day → ]
[ °C ]   °F
Weather ElementAverageHighLow
Temperature19.4 °F28 °F (9:53 pm)10 °F (4:53 am)
Dewpoint4.3 °F12.9 °F (8:53 pm)-2 °F (6:53 am)
Humidity52.5 %61 % (4:53 am)37 % (3:53 pm)
Barometer30.41 in30.54 in (9:53 am)30.27 in (11:53 pm)
Wind Speed7.5 mph17.3 mph (2:53 am)
Wind Gust23 mph (2:53 am)
Weather ElementAverage
Visibility10 mi
Wind DirectionWSW (231 °)

Weather ElementTotal
Precipitation---
Heating Degree Days46 (Base 65)
Averaged from 21 records on February 1, 2013
WEATHER CONDITIONS BREAKOUT
WIND DIRECTION BREAKOUT
WEATHER BY HOUR - FEBRUARY 1, 2013
[ °C ]   °F
Local TimeTemperatureDewpointHumidityBarometerVisibilityWind DirectionWind SpeedGust SpeedPrecipitationEventsConditions
1:53 AM10.9 °F-0.9 °F59 %30.45 in10.0 miWNW (300°)13.8 mph21.9 mphClear
2:53 AM10.9 °F-0.9 °F59 %30.45 in10.0 miNW (320°)17.3 mph23.0 mphClear
3:53 AM10.9 °F-0.9 °F59 %30.45 in10.0 miNW (310°)13.8 mphClear
4:53 AM10.0 °F-0.9 °F61 %30.46 in10.0 miWNW (290°)6.9 mphClear
5:53 AM10.0 °F-0.9 °F61 %30.48 in10.0 miWNW (290°)3.5 mphClear
6:53 AM10.0 °F-2.0 °F58 %30.48 in10.0 miNW (310°)8.1 mphClear
7:53 AM10.9 °F-0.9 °F59 %30.51 in10.0 miWest (260°)4.6 mphClear
8:53 AM12.0 °F1.0 °F61 %30.53 in10.0 miWest (280°)6.9 mphClear
9:53 AM12.9 °F0.0 °F56 %30.54 in10.0 miSW (220°)4.6 mphClear
10:53 AM16.0 °F0.0 °F49 %30.53 in10.0 miSSW (210°)6.9 mphClear
1:53 PM23.0 °F5.0 °F46 %30.43 in10.0 miWest (260°)5.8 mphClear
2:53 PM25.0 °F3.9 °F41 %30.40 in10.0 miSSW (210°)6.9 mphClear
3:53 PM26.1 °F3.0 °F37 %30.39 in10.0 miSouth (190°)5.8 mphClear
4:53 PM27.0 °F6.1 °F41 %30.38 in10.0 miWSW (240°)5.8 mphClear
5:53 PM27.0 °F8.1 °F45 %30.36 in10.0 miSSE (160°)4.6 mphOvercast
6:53 PM27.0 °F10.0 °F49 %30.35 in10.0 miSSE (150°)6.9 mphOvercast
7:53 PM27.0 °F10.9 °F51 %30.32 in10.0 miSSE (150°)6.9 mphOvercast
8:53 PM27.0 °F12.9 °F56 %30.31 in10.0 miSSE (150°)8.1 mphOvercast
9:53 PM28.0 °F12.0 °F51 %30.30 in10.0 miSouth (180°)6.9 mphOvercast
10:53 PM28.0 °F12.0 °F51 %30.29 in10.0 miSouth (180°)8.1 mphOvercast
11:53 PM28.0 °F12.9 °F53 %30.27 in10.0 miSouth (190°)5.8 mphOvercast
Hourly data recorded from KCPS, located miles away from St. Louis - Memorial Plaza, Missouri







STORIES FROM OUR PARTNERS